Flag Weather past 2 weeks in Carlisle, England, United Kingdom

Now
41 °F

Quite cool.


Feels Like: N/A
Forecast: 39 / 47 °F
Wind: N/A

Location: Carlisle

Current Time: Nov 26, 2014 at 6:54:12 AM

Latest Report: Nov 26, 2014 at 6:00 AM


Visibility: 14 mi

Pressure: 30.03 "Hg

Humidity: 90%

Dew point: 38 °F

Location of CarlisleLocation

Historic Weather in Carlisle — Graph

°F

Carlisle temperature yesterday

Maximum temperature yesterday: 48 °F (at 2:00 PM)
Minimum temperature yesterday: 37 °F (at 10:00 PM)
Average temperature yesterday: 43 °F

Past Weeks' High & Low Weather Summary

 TemperatureHumidityPressure
High58 °F (Nov 22, 12:00 PM)100% (Nov 15, 6:00 AM)30.31 "Hg (Nov 15, 6:00 AM)
Low37 °F (Nov 16, 9:00 AM)63% (Nov 13, 7:00 PM)29.23 "Hg (Nov 12, 2:00 AM)
Average47 °F89%29.81 "Hg
* Reported Nov 11 5:00 AM — Nov 26 5:00 AM, Carlisle, Weather by CustomWeather, © 2014

Note: Actual official high and low records may vary slightly from our data, if they occured in-between our weather recording intervals... More about our weather records

Advertising

Carlisle weather history for previous 24 hours

 ConditionsComfort  
Time TempWeatherWind HumidityBarometerVisibility
5:00 AM
Nov 26
40 °FQuite cool.N/A93%30.06 "Hg12 mi
4:00 AM40 °FChilly.N/A94%30.07 "Hg12 mi
3:00 AM40 °FChilly.N/A93%30.08 "Hg12 mi
2:00 AM39 °FChilly.N/A95%30.09 "Hg14 mi
1:00 AM39 °FChilly.N/A97%30.11 "Hg12 mi
12:00 AM38 °FChilly.N/A98%30.14 "Hg8 mi
11:00 PM
Nov 25
38 °FChilly.N/A99%30.15 "Hg10 mi
10:00 PM37 °FChilly.N/A98%30.16 "Hg8 mi
9:00 PM39 °FChilly.N/A97%30.16 "Hg11 mi
8:00 PM39 °FChilly.N/A97%30.17 "Hg12 mi
7:00 PM40 °FQuite cool.N/A95%30.17 "Hg14 mi
6:00 PM43 °FQuite cool.N/A96%30.18 "Hg6 mi
5:00 PM45 °FCool.N/A91%30.17 "Hg12 mi
4:00 PM47 °FCool.N/A90%30.17 "Hg11 mi
3:00 PM47 °FCool.N/A88%30.18 "Hg13 mi
2:00 PM48 °FCool.N/A85%30.20 "Hg13 mi
1:00 PM47 °FCool.N/A87%30.22 "Hg17 mi
12:00 PM46 °FCool.N/A88%30.23 "Hg15 mi
11:00 AM46 °FCool.N/A89%30.25 "Hg7 mi
10:00 AM45 °FCool.N/A93%30.26 "Hg6 mi
9:00 AM44 °FQuite cool.N/A94%30.26 "Hg6 mi
8:00 AM44 °FQuite cool.N/A96%30.26 "Hg5 mi
7:00 AM43 °FQuite cool.N/A96%30.25 "Hg6 mi
6:00 AM43 °FQuite cool.N/A92%30.25 "Hg8 mi
Weather by CustomWeather, © 2014

See weather overviewHow to use our weather pages